FW2498 Weather Reports


Display with metric or nautical units.
time (UTC)temp
F
wind
direction
speed
MPH
gust
MPH
rain 1hr
in
rain 24hr
in
rain mn
in
humidity
%
barometer
mb
20260905083019 68 52 1.0 5.0 0.00 0.00 0.00 71 1006.2
20260905081517 68 50 5.0 8.0 0.00 0.00 0.00 71 1006.1
20260905080020 68 42 8.0 10.0 0.00 0.00 0.00 70 1006.1
20260905074522 69 37 8.0 11.0 0.00 0.00 0.00 69 1006.1
20260905073012 69 32 10.0 12.0 0.00 0.00 0.00 67 1006.1
20260905071510 70 28 11.0 13.0 0.00 0.00 0.00 66 1006.1
20260905070006 70 25 10.0 12.0 0.00 0.00 0.00 65 1006.2
20260905064503 70 31 10.0 12.0 0.00 0.00 0.00 64 1005.9
20260905063100 72 27 9.0 11.0 0.00 0.00 0.00 62 1006.0
20260905061604 72 28 9.0 10.0 0.00 0.00 0.00 60 1005.8
20260905060053 73 38 9.0 11.0 0.00 0.00 0.00 60 1005.7
20260905054656 73 42 9.0 11.0 0.00 0.00 0.00 59 1005.7
20260905053054 75 52 8.0 12.0 0.00 0.00 0.00 57 1005.6
20260905051552 75 37 9.0 11.0 0.00 0.00 0.00 56 1005.9
20260905050052 76 41 6.0 10.0 0.00 0.00 0.00 55 1005.9
20260905044604 76 71 6.0 14.0 0.00 0.00 0.00 55 1005.9
20260905043054 77 79 7.0 11.0 0.00 0.00 0.00 56 1005.9
20260905041551 78 61 5.0 16.0 0.00 0.00 0.00 56 1005.9
20260905040104 77 72 7.0 11.0 0.00 0.00 0.00 59 1005.8
20260905034600 77 83 1.0 9.0 0.00 0.00 0.00 58 1006.0
20260905033050 79 73 5.0 10.0 0.00 0.00 0.00 55 1006.0
20260905031550 80 64 4.0 10.0 0.00 0.00 0.00 52 1005.9
20260905030049 80 24 9.0 17.0 0.00 0.00 0.00 50 1005.8
20260905024557 80 35 11.0 15.0 0.00 0.00 0.00 49 1005.8
20260905023047 81 38 10.0 14.0 0.00 0.00 0.00 47 1005.8
20260905021546 82 33 10.0 13.0 0.00 0.00 0.00 45 1005.6
20260905020053 83 21 8.0 11.0 0.00 0.00 0.00 43 1005.5
20260905014545 83 40 9.0 11.0 0.00 0.00 0.00 42 1005.2
20260905013045 86 56 5.0 9.0 0.00 0.00 0.00 39 1005.3
20260905011543 87 60 3.0 9.0 0.00 0.00 0.00 38 1005.3
20260905010044 89 58 2.0 11.0 0.00 0.00 0.00 35 1005.0
20260905004542 90 73 8.0 12.0 0.00 0.00 0.00 34 1005.0
20260905003042 90 65 7.0 13.0 0.00 0.00 0.00 32 1004.9
20260905001541 91 83 9.0 13.0 0.00 0.00 0.00 32 1004.9
20260905000038 91 74 10.0 16.0 0.00 0.00 0.00 32 1004.8
20260904234534 91 87 10.0 16.0 0.00 0.00 0.00 32 1005.0
20260904233030 91 94 10.0 18.0 0.00 0.00 0.00 32 1005.0
20260904231525 91 90 9.0 20.0 0.00 0.00 0.00 32 1005.1
20260904230020 91 95 12.0 19.0 0.00 0.00 0.00 33 1005.1
20260904224518 90 90 11.0 23.0 0.00 0.00 0.00 34 1005.3
20260904223016 90 93 14.0 23.0 0.00 0.00 0.00 34 1005.4
20260904221513 90 116 14.0 21.0 0.00 0.00 0.00 36 1005.5
20260904220010 90 139 14.0 20.0 0.00 0.00 0.00 36 1005.7
20260904214505 89 112 15.0 23.0 0.00 0.00 0.00 37 1005.7
20260904213003 89 136 14.0 25.0 0.00 0.00 0.00 38 1005.7
20260904211504 88 140 16.0 25.0 0.00 0.00 0.00 39 1005.8
20260904210059 88 125 20.0 27.0 0.00 0.00 0.00 40 1005.7
20260904204556 87 107 17.0 28.0 0.00 0.00 0.00 41 1005.8
20260904203058 87 108 18.0 25.0 0.00 0.00 0.00 41 1005.8
20260904201556 86 116 19.0 27.0 0.00 0.00 0.00 42 1005.8
20260904200109 86 125 17.0 26.0 0.00 0.00 0.00 44 1005.9
20260904194551 85 121 16.0 26.0 0.00 0.00 0.00 43 1006.0
20260904193046 85 111 20.0 28.0 0.00 0.00 0.00 44 1006.1
20260904191542 85 105 16.0 28.0 0.00 0.00 0.00 44 1006.3
20260904190039 85 125 22.0 35.0 0.00 0.00 0.00 43 1006.5
20260904184537 83 121 24.0 30.0 0.00 0.00 0.00 47 1006.8
20260904183039 82 93 22.0 31.0 0.00 0.00 0.00 47 1006.9
20260904181530 83 109 22.0 31.0 0.00 0.00 0.00 46 1007.2
20260904180037 82 103 24.0 33.0 0.00 0.00 0.00 47 1007.3
20260904174523 81 114 24.0 37.0 0.00 0.00 0.00 47 1007.6
20260904173018 80 97 20.0 34.0 0.00 0.00 0.00 50 1007.8
20260904171515 78 88 25.0 36.0 0.00 0.00 0.00 56 1008.0
20260904170009 75 89 22.0 31.0 0.00 0.00 0.00 66 1008.0
20260904164505 73 90 21.0 30.0 0.00 0.00 0.00 71 1008.1
20260904163004 71 88 22.0 29.0 0.00 0.00 0.00 74 1008.2
20260904161604 70 73 21.0 32.0 0.00 0.00 0.00 78 1008.3
20260904160055 69 108 23.0 30.0 0.00 0.00 0.00 79 1008.5
20260904154553 68 101 21.0 28.0 0.00 0.00 0.00 81 1008.9
20260904153052 68 104 20.0 30.0 0.00 0.00 0.00 82 1008.9
20260904151544 68 88 19.0 26.0 0.00 0.00 0.00 81 1009.0
20260904150041 68 106 19.0 25.0 0.00 0.00 0.00 80 1008.9
20260904144537 68 98 16.0 23.0 0.00 0.00 0.00 82 1008.9
20260904143036 67 97 17.0 23.0 0.00 0.00 0.00 84 1009.0
20260904141529 66 102 18.0 27.0 0.00 0.00 0.00 86 1009.1
20260904140024 64 96 14.0 21.0 0.00 0.00 0.00 89 1009.2
20260904134519 63 108 11.0 19.0 0.00 0.00 0.00 90 1009.2
20260904133018 62 96 9.0 14.0 0.00 0.00 0.00 91 1009.3
20260904131510 61 81 3.0 6.0 0.00 0.00 0.00 91 1009.4
20260904130006 61 66 1.0 7.0 0.00 0.00 0.00 91 1009.4
20260904124504 61 63 3.0 6.0 0.00 0.00 0.00 91 1009.3
20260904123002 61 59 3.0 9.0 0.00 0.00 0.00 91 1009.2
20260904121600 60 63 5.0 11.0 0.00 0.00 0.00 90 1009.1
20260904120058 61 73 8.0 12.0 0.00 0.00 0.00 90 1009.1
20260904114601 61 72 8.0 13.0 0.00 0.00 0.00 89 1009.0
20260904113053 62 60 3.0 8.0 0.00 0.00 0.00 87 1008.8
20260904111550 63 140 0.0 7.0 0.00 0.00 0.00 86 1009.0
20260904110051 63 109 1.0 6.0 0.00 0.00 0.00 86 1009.0
20260904104651 63 90 5.0 10.0 0.00 0.00 0.00 86 1009.0
20260904103050 62 92 4.0 7.0 0.00 0.00 0.00 87 1009.0
20260904101548 62 104 2.0 5.0 0.00 0.00 0.00 86 1008.9
20260904100059 62 110 0.0 4.0 0.00 0.00 0.00 85 1009.0
20260904094558 63 110 4.0 8.0 0.00 0.00 0.00 84 1009.0
20260904093046 62 102 2.0 7.0 0.00 0.00 0.00 84 1009.1
20260904091545 63 98 3.0 5.0 0.00 0.00 0.00 83 1009.1
20260904090053 62 104 2.0 3.0 0.00 0.00 0.00 82 1009.1
20260904084548 62 106 1.0 5.0 0.00 0.00 0.00 82 1009.2